Location: Ellerstadt
(49.4644°N, 8.2615°E)
Time: 00:07:59
(UTC+00:00)

Meteor 1-20 Rocket - Pass Details

Date: 03 March 2021
Orbit: 820 x 891 km, 81.2° (Epoch: 13 April)

Event Time Altitude Azimuth Distance (km) Brightness Sun altitude
Rises 18:07:54 0° 193° (SSW) 3,340 7.5 -9.7°
Reaches altitude 10° 18:10:17 10° 194° (SSW) 2,411 6.7 -10.1°
Maximum altitude 18:15:45 81° 282° (WNW) 839 4.3 -11.0°
Drops below altitude 10° 18:21:17 10° 10° (N) 2,447 6.5 -11.9°
Sets 18:23:43 0° 12° (NNE) 3,394 7.3 -12.2°
